Dayton Wright, OH

7:21 PM EDT on July 25, 2017 (GMT -0400)
Dayton-Wright Brothers

Weather History for KMGY - January, 2014

Change the Weather History Date:

Wednesday, January 8, 2014

  Actual Average (KFFO) Record (KFFO)
Temperature  
Mean Temperature 18 °F -  
Max Temperature 28 °F 35 °F 62 °F (2008)
Min Temperature 9 °F 20 °F -7 °F (2015)
Degree Days  
Heating Degree Days 46    
Moisture  
Dew Point 10 °F    
Average Humidity 69    
Maximum Humidity 77    
Minimum Humidity 61    
Precipitation  
Precipitation 0.00 in - - ()
Sea Level Pressure  
Sea Level Pressure 30.40 in    
Wind  
Wind Speed 7 mph (SSW)    
Max Wind Speed 12 mph    
Max Gust Speed -    
Visibility 10 miles    
Events      
Averages and records for this station are not official NWS values.
T = Trace of Precipitation, MM = Missing Value Source: NWS Daily Summary

Daily Weather History Graph

Daily Weather History Graph

Search for Another Location

Airport or City:

Trip Planner

Search our weather history database for the weather conditions in past years. The results will help you decide how hot, cold, wet, or windy it might be!

Date:

Astronomy

Jan. 08, 2014 Rise Set
Actual Time 7:57 AM EST 5:30 PM EST
Civil Twilight 7:27 AM EST 5:59 PM EST
Nautical Twilight 6:54 AM EST 6:33 PM EST
Astronomical Twilight 6:21 AM EST 7:05 PM EST
Moon 12:21 PM EST (1/8) 1:02 AM EST (1/8)
Length of Visible Light 10h 32m
Length of Day
9h 32m
First Quarter, 56% of the Moon is Illuminated
Jan 8
First Quarter
Jan 15
Full
Jan 24
Last Quarter
Jan 30
New
Feb 6
First Quarter

Hourly Weather History & Observations

Time (EST) Temp. Windchill Dew Point Humidity Pressure Visibility Wind Dir Wind Speed Gust Speed Precip Events Conditions
12:53 AM 10.9 °F 0.2 °F 3.0 °F 70% 30.41 in 10.0 mi SSW 6.9 mph - N/A   Mostly Cloudy
1:53 AM 10.0 °F -1.9 °F 3.0 °F 73% 30.41 in 10.0 mi South 8.1 mph - N/A   Clear
2:53 AM 10.0 °F -3.7 °F 1.9 °F 70% 30.42 in 10.0 mi South 10.4 mph - N/A   Clear
3:53 AM 9.0 °F -3.2 °F 1.0 °F 70% 30.42 in 10.0 mi South 8.1 mph - N/A   Clear
4:53 AM 9.0 °F -2.2 °F 1.9 °F 73% 30.41 in 10.0 mi South 6.9 mph - N/A   Clear
5:53 AM 9.0 °F -3.2 °F 1.9 °F 73% 30.41 in 10.0 mi South 8.1 mph - N/A   Clear
6:53 AM 9.0 °F -2.2 °F 3.0 °F 77% 30.41 in 10.0 mi South 6.9 mph - N/A   Clear
7:53 AM 10.9 °F 0.2 °F 3.9 °F 73% 30.42 in 10.0 mi South 6.9 mph - N/A   Mostly Cloudy
8:53 AM 12.9 °F 0.7 °F 6.1 °F 74% 30.43 in 10.0 mi South 9.2 mph - N/A   Mostly Cloudy
9:53 AM 16.0 °F 2.9 °F 8.1 °F 71% 30.46 in 10.0 mi SSW 11.5 mph - N/A   Overcast
11:53 AM 21.0 °F 10.6 °F 10.9 °F 65% 30.38 in 10.0 mi SSW 9.2 mph - N/A   Mostly Cloudy
12:53 PM 21.9 °F 11.7 °F 12.0 °F 66% 30.35 in 10.0 mi SW 9.2 mph - N/A   Mostly Cloudy
1:53 PM 24.1 °F 13.7 °F 14.0 °F 65% 30.35 in 10.0 mi SSW 10.4 mph - N/A   Overcast
2:53 PM 26.1 °F 16.8 °F 15.1 °F 63% 30.35 in 10.0 mi SW 9.2 mph - N/A   Overcast
3:53 PM 27.0 °F 20.5 °F 15.1 °F 61% 30.36 in 10.0 mi SSW 5.8 mph - N/A   Overcast
4:53 PM 28.0 °F 20.8 °F 16.0 °F 61% 30.37 in 10.0 mi WSW 6.9 mph - N/A   Overcast
5:53 PM 27.0 °F 23.0 °F 16.0 °F 63% 30.38 in 10.0 mi West 3.5 mph - N/A   Mostly Cloudy
6:53 PM 27.0 °F - 17.1 °F 66% 30.38 in 10.0 mi Calm Calm - N/A   Scattered Clouds
7:53 PM 26.1 °F - 18.0 °F 71% 30.40 in 10.0 mi Calm Calm - N/A   Overcast
8:53 PM 25.0 °F - 18.0 °F 75% 30.42 in 10.0 mi Calm Calm - N/A   Partly Cloudy
9:53 PM 26.1 °F - 17.1 °F 69% 30.44 in 10.0 mi Calm Calm - N/A   Mostly Cloudy
10:53 PM 26.1 °F 21.9 °F 17.1 °F 69% 30.44 in 10.0 mi NNE 3.5 mph - N/A   Overcast
11:53 PM 25.0 °F 18.1 °F 18.0 °F 75% 30.49 in 10.0 mi NE 5.8 mph - N/A   Overcast